CW3330 Weather Reports


time (UTC)temp
F
wind
direction
speed
knots
gust
knots
rain 1hr
in
rain 24hr
in
rain mn
in
humidity
%
barometer
mb
20260505140331 57 87 6.1 11.3 0.00 0.00 0.00 62 1010.7
20260505124332 57 80 3.5 10.4 0.00 0.00 0.00 65 1011.0
20260505123810 59 30 5.2 11.3 0.00 0.00 0.00 61 1011.1
20260505122331 58 45 3.5 11.3 0.00 0.00 0.00 58 1011.1
20260505120332 58 67 5.2 14.8 0.00 0.00 0.00 63 1011.1
20260505115331 58 69 6.1 12.2 0.00 0.00 0.00 62 1011.1
20260505114333 58 26 5.2 12.2 0.00 0.00 0.00 64 1011.1
20260505113332 58 75 7.8 13.9 0.00 0.00 0.00 63 1011.2
20260505112332 58 329 5.2 12.2 0.00 0.00 0.00 61 1011.1
20260505111331 56 67 7.8 10.4 0.00 0.00 0.00 68 1011.2
20260505110817 56 61 2.6 10.4 0.00 0.00 0.00 69 1011.2
20260505101809 55 49 7.0 13.9 0.00 0.00 0.00 65 1011.4
20260505100330 56 24 3.5 12.2 0.00 0.00 0.00 66 1011.4
20260505095331 55 61 7.0 12.2 0.00 0.00 0.00 66 1011.6
20260505094331 55 0 4.3 10.4 0.00 0.00 0.00 67 1011.6
20260505093331 56 48 3.5 11.3 0.00 0.00 0.00 67 1011.6
20260505092331 54 68 5.2 12.2 0.00 0.00 0.00 68 1011.6
20260505091816 54 98 6.1 11.3 0.00 0.00 0.00 67 1011.8
20260505090330 54 40 7.0 10.4 0.00 0.00 0.00 67 1011.8
20260505085332 53 309 4.3 13.9 0.00 0.00 0.00 67 1011.7
20260505084332 53 312 4.3 9.6 0.00 0.00 0.00 74 1011.9
20260505083333 53 30 5.2 10.4 0.00 0.00 0.00 74 1011.9
20260505082332 52 39 6.1 10.4 0.00 0.00 0.00 70 1011.8
20260505081331 52 17 1.7 8.7 0.00 0.00 0.00 77 1011.8
20260505080330 52 39 4.3 8.7 0.00 0.00 0.00 76 1011.9
20260505075332 51 63 4.3 7.8 0.00 0.00 0.00 79 1011.9
20260505074331 50 13 6.1 9.6 0.00 0.00 0.00 80 1011.8
20260505073333 50 9 6.1 11.3 0.00 0.00 0.00 81 1011.9
20260505072332 49 11 3.5 10.4 0.00 0.00 0.00 83 1011.9
20260505071344 49 65 2.6 8.7 0.00 0.00 0.00 80 1011.9
20260505070812 49 308 4.3 10.4 0.00 0.00 0.00 85 1012.0
20260505065841 49 22 7.0 12.2 0.00 0.00 0.00 85 1012.2
20260505064337 49 30 5.2 9.6 0.00 0.00 0.00 85 1012.1
20260505063835 48 30 3.5 10.4 0.00 0.00 0.00 86 1012.0
20260505062331 48 10 6.1 9.6 0.00 0.00 0.00 87 1012.0
20260505061333 47 43 2.6 9.6 0.00 0.00 0.00 90 1012.1
20260505060331 46 5 1.7 2.6 0.00 0.00 0.00 92 1012.0
20260505055805 45 311 0.9 2.6 0.00 0.00 0.00 94 1012.0
20260505054333 44 311 0.0 0.0 0.00 0.00 0.00 93 1012.1
20260505053815 43 311 0.0 2.6 0.00 0.00 0.00 93 1012.0
20260505052332 43 310 1.7 2.6 0.00 0.00 0.00 94 1012.1
20260505051331 42 310 0.0 0.0 0.00 0.00 0.00 94 1012.0
20260505050331 42 310 0.0 0.0 0.00 0.00 0.00 94 1011.9
20260505040333 40 310 0.0 0.0 0.00 0.00 0.00 94 1011.9
20260505035331 40 310 0.0 0.0 0.00 0.00 0.00 94 1011.9
20260505034331 40 310 0.0 0.0 0.00 0.00 0.00 93 1012.0
20260505033331 40 310 0.0 0.0 0.00 0.00 0.00 94 1012.0
20260505032332 40 310 0.0 0.0 0.00 0.00 0.00 93 1012.0
20260505030331 40 310 0.0 0.0 0.00 0.00 0.00 93 1011.9
20260505025332 40 310 0.0 0.0 0.00 0.00 0.00 93 1012.0
20260505024331 40 310 0.0 0.0 0.00 0.00 0.00 93 1012.0
20260505023330 40 310 0.0 0.0 0.00 0.00 0.00 94 1012.1
20260505022850 40 310 0.0 1.7 0.00 0.00 0.00 94 1012.2
20260505021339 40 310 0.0 1.7 0.00 0.00 0.00 93 1012.1
20260505020333 40 310 0.9 1.7 0.00 0.00 0.00 93 1012.2
20260505015340 40 310 0.0 1.7 0.00 0.00 0.00 93 1012.2
20260505014339 40 310 0.0 0.0 0.00 0.01 0.00 93 1012.2
20260505013333 41 310 0.0 0.0 0.00 0.01 0.00 93 1012.3
20260505012346 41 310 0.0 1.7 0.00 0.01 0.00 93 1012.3
20260505011340 41 309 0.0 2.6 0.00 0.01 0.00 93 1012.4
20260505005340 41 309 0.9 2.6 0.00 0.01 0.00 92 1012.4
20260505004333 41 309 1.7 2.6 0.00 0.01 0.00 92 1012.4
20260505003334 42 309 1.7 2.6 0.00 0.01 0.00 92 1012.5
20260505002819 42 309 1.7 2.6 0.00 0.01 0.00 92 1012.6
20260505001813 42 309 1.7 2.6 0.00 0.01 0.00 91 1012.6
20260505000806 42 309 1.7 2.6 0.00 0.01 0.00 91 1012.7
20260504235333 42 309 1.7 2.6 0.00 0.01 0.00 91 1012.6
20260504234333 42 309 1.7 2.6 0.00 0.01 0.00 90 1012.5
20260504233331 43 309 0.0 0.0 0.00 0.01 0.00 90 1012.7
20260504232331 43 309 0.0 0.0 0.00 0.01 0.00 90 1012.7
20260504231331 43 309 0.0 0.0 0.00 0.01 0.00 89 1012.7
20260504230331 43 309 0.0 0.0 0.00 0.01 0.00 89 1012.8
20260504225332 44 309 0.0 1.7 0.00 0.01 0.00 88 1012.8
20260504224813 44 309 0.9 3.5 0.00 0.01 0.00 88 1013.0
20260504222338 44 310 1.7 2.6 0.00 0.01 0.00 87 1013.0
20260504221320 44 310 1.7 3.5 0.00 0.01 0.00 87 1013.1
20260504220320 45 313 2.6 3.5 0.00 0.01 0.00 86 1013.0
20260504215312 45 315 1.7 2.6 0.00 0.01 0.01 86 1013.1
20260504214308 45 315 1.7 2.6 0.00 0.01 0.01 86 1013.2
20260504213304 46 315 0.9 2.6 0.00 0.01 0.01 85 1013.3
20260504212304 46 315 0.0 1.7 0.00 0.01 0.01 84 1013.3
20260504211303 46 315 1.7 3.5 0.00 0.01 0.01 84 1013.3
20260504210743 47 296 1.7 3.5 0.00 0.01 0.01 84 1013.3
20260504205304 47 294 2.6 4.3 0.00 0.01 0.01 84 1013.1
20260504204303 47 292 3.5 3.5 0.00 0.01 0.01 84 1013.1
20260504203303 47 284 1.7 2.6 0.00 0.01 0.01 85 1013.1
20260504202305 48 282 1.7 2.6 0.00 0.01 0.01 84 1013.2
20260504201303 48 282 0.9 1.7 0.00 0.01 0.01 83 1013.1
20260504200741 49 282 0.9 2.6 0.00 0.02 0.01 82 1013.0
20260504195304 49 282 0.0 2.6 0.00 0.02 0.01 81 1012.8
20260504194301 50 281 0.9 6.1 0.00 0.05 0.01 80 1012.6
20260504193257 50 282 1.7 3.5 0.00 0.06 0.01 79 1012.7
20260504192254 51 281 0.9 4.3 0.00 0.06 0.01 78 1012.7
20260504191735 51 297 2.6 3.5 0.00 0.06 0.01 77 1012.7
20260504190247 52 296 0.9 3.5 0.00 0.06 0.01 75 1012.6
20260504185715 52 298 2.6 3.5 0.00 0.06 0.01 74 1012.6
20260504184720 53 298 1.7 3.5 0.00 0.06 0.01 73 1012.5
20260504183232 53 305 1.7 7.0 0.00 0.06 0.01 72 1012.5
20260504182232 54 306 1.7 7.0 0.00 0.06 0.01 71 1012.5
20260504181233 54 316 2.6 6.1 0.00 0.06 0.01 71 1012.4
20260504180231 55 284 2.6 7.8 0.00 0.17 0.01 71 1012.5
20260504175232 55 325 2.6 7.8 0.00 0.31 0.01 71 1012.4
20260504174231 56 321 3.5 7.8 0.00 0.32 0.01 71 1012.4
20260504173232 56 295 3.5 7.8 0.00 0.32 0.01 70 1012.4
20260504172707 56 279 3.5 7.8 0.00 0.32 0.01 70 1012.4
20260504171231 56 279 3.5 7.8 0.00 0.32 0.01 71 1012.4
20260504170241 57 321 4.3 8.7 0.00 0.32 0.01 70 1012.4
20260504160232 59 319 4.3 8.7 0.00 0.42 0.01 66 1012.5
20260504150232 59 275 4.3 7.8 0.00 0.42 0.01 69 1012.8
20260504141231 60 294 5.2 10.4 0.00 0.42 0.01 67 1012.9